RAMEN44 YWSL-YSNW

Flight info

Callsign RAMEN44
Flight time 2h 11m
Altitude 5500
Route YWSL-VFR-YSNW
Aircraft H60/L-L/C

Departure

Time 2026-04-17 10:32
Airport West Sale Airport (YWSL)

Arrival

Time 2026-04-17 12:44
Airport Naval Air Station Nowra - HMAS Albatross (YSNW)
Time Latitude Longitude Altitude Speed Heading
2026-04-17 10:22 -38.09338 146.97321 73 ft 0 kts 62°
2026-04-17 10:29 -38.09337 146.97324 74 ft 1 kts 62°
2026-04-17 10:29 -38.09336 146.97324 75 ft 0 kts 62°
2026-04-17 10:30 -38.09327 146.97345 75 ft 6 kts 30°
2026-04-17 10:30 -38.09262 146.97379 87 ft 14 kts
2026-04-17 10:31 -38.09187 146.97341 93 ft 13 kts 275°
2026-04-17 10:31 -38.09157 146.97067 216 ft 53 kts 281°
2026-04-17 10:31 -38.09075 146.96411 410 ft 94 kts 282°
2026-04-17 10:31 -38.08913 146.95511 557 ft 104 kts 288°
2026-04-17 10:32 -38.08298 146.95026 631 ft 115 kts 343°
2026-04-17 10:32 -38.07588 146.95484 572 ft 122 kts 44°
2026-04-17 10:32 -38.07549 146.96514 840 ft 123 kts 103°
2026-04-17 10:32 -38.08219 146.97140 990 ft 128 kts 159°
2026-04-17 10:33 -38.09115 146.97052 996 ft 132 kts 195°
2026-04-17 10:33 -38.09845 146.96431 1031 ft 121 kts 225°
2026-04-17 10:33 -38.10582 146.96414 1001 ft 134 kts 159°
2026-04-17 10:33 -38.11052 146.97422 895 ft 122 kts 120°
2026-04-17 10:34 -38.11460 146.98294 810 ft 113 kts 122°
2026-04-17 10:34 -38.11801 146.99173 904 ft 111 kts 118°
2026-04-17 10:34 -38.12201 147.00096 733 ft 127 kts 122°
2026-04-17 10:34 -38.12689 147.01052 863 ft 134 kts 125°
2026-04-17 10:35 -38.13083 147.02115 917 ft 136 kts 113°
2026-04-17 10:35 -38.13396 147.03215 672 ft 123 kts 110°
2026-04-17 10:35 -38.13644 147.04179 603 ft 107 kts 109°
2026-04-17 10:35 -38.13876 147.05084 735 ft 112 kts 110°
2026-04-17 10:36 -38.14028 147.05721 589 ft 114 kts 107°
2026-04-17 10:36 -38.14186 147.06768 486 ft 125 kts 102°
2026-04-17 10:36 -38.14116 147.08102 617 ft 113 kts 77°
2026-04-17 10:36 -38.13822 147.09093 561 ft 130 kts 70°
2026-04-17 10:37 -38.13609 147.09864 569 ft 140 kts 72°
2026-04-17 10:37 -38.13305 147.11022 659 ft 138 kts 72°
2026-04-17 10:37 -38.13015 147.12116 689 ft 121 kts 72°
2026-04-17 10:37 -38.12760 147.13081 676 ft 110 kts 72°
2026-04-17 10:38 -38.12527 147.13958 673 ft 102 kts 72°
2026-04-17 10:38 -38.12290 147.14866 658 ft 121 kts 73°
2026-04-17 10:38 -38.12002 147.15938 975 ft 135 kts 71°
2026-04-17 10:38 -38.11667 147.17152 465 ft 149 kts 70°
2026-04-17 10:39 -38.11297 147.18295 556 ft 136 kts 68°
2026-04-17 10:39 -38.10932 147.19426 509 ft 139 kts 68°
2026-04-17 10:39 -38.10568 147.20558 522 ft 138 kts 68°
2026-04-17 10:39 -38.10205 147.21690 512 ft 143 kts 68°
2026-04-17 10:40 -38.09823 147.22911 524 ft 151 kts 70°
2026-04-17 10:40 -38.09526 147.24185 523 ft 153 kts 75°
2026-04-17 10:40 -38.09236 147.25497 534 ft 155 kts 75°
2026-04-17 10:40 -38.08959 147.26820 537 ft 155 kts 76°
2026-04-17 10:41 -38.08686 147.28143 540 ft 154 kts 76°
2026-04-17 10:41 -38.08405 147.29484 536 ft 160 kts 76°
2026-04-17 10:41 -38.08122 147.30873 532 ft 165 kts 76°
2026-04-17 10:41 -38.07837 147.32236 544 ft 160 kts 76°
2026-04-17 10:42 -38.07557 147.33591 555 ft 158 kts 76°
2026-04-17 10:42 -38.07275 147.34962 834 ft 161 kts 76°
2026-04-17 10:42 -38.06997 147.36336 1221 ft 162 kts 76°
2026-04-17 10:42 -38.06715 147.37739 1509 ft 160 kts 76°
2026-04-17 10:43 -38.06474 147.39115 1400 ft 162 kts 78°
2026-04-17 10:43 -38.06265 147.40529 1351 ft 163 kts 79°
2026-04-17 10:43 -38.06092 147.41933 1768 ft 159 kts 82°
2026-04-17 10:43 -38.05936 147.43264 2274 ft 155 kts 83°
2026-04-17 10:44 -38.05788 147.44718 2378 ft 176 kts 83°
2026-04-17 10:44 -38.05616 147.46271 2329 ft 178 kts 82°
2026-04-17 10:44 -38.05419 147.47816 2352 ft 178 kts 81°
2026-04-17 10:44 -38.05199 147.49360 2360 ft 176 kts 80°
2026-04-17 10:45 -38.04961 147.50852 2433 ft 158 kts 79°
2026-04-17 10:45 -38.04758 147.52081 2407 ft 127 kts 79°
2026-04-17 10:45 -38.04582 147.53150 2397 ft 119 kts 79°
2026-04-17 10:45 -38.04407 147.54210 2382 ft 126 kts 79°
2026-04-17 10:46 -38.04233 147.55269 2382 ft 124 kts 79°
2026-04-17 10:46 -38.04057 147.56339 2381 ft 123 kts 79°
2026-04-17 10:46 -38.03881 147.57408 2382 ft 124 kts 79°
2026-04-17 10:46 -38.03706 147.58477 2381 ft 124 kts 79°
2026-04-17 10:47 -38.03530 147.59546 2381 ft 123 kts 79°
2026-04-17 10:47 -38.03355 147.60616 2381 ft 124 kts 79°
2026-04-17 10:47 -38.03180 147.61684 2380 ft 124 kts 79°
2026-04-17 10:47 -38.03005 147.62756 2380 ft 124 kts 79°
2026-04-17 10:48 -38.02829 147.63826 2380 ft 124 kts 79°
2026-04-17 10:48 -38.02654 147.64894 2380 ft 123 kts 79°
2026-04-17 10:48 -38.02478 147.65964 2380 ft 124 kts 79°
2026-04-17 10:48 -38.02303 147.67032 2380 ft 124 kts 79°
2026-04-17 10:49 -38.02128 147.68102 2380 ft 124 kts 79°
2026-04-17 10:49 -38.01953 147.69170 2380 ft 123 kts 79°
2026-04-17 10:49 -38.01761 147.70242 2393 ft 132 kts 78°
2026-04-17 10:49 -38.01506 147.71408 2300 ft 141 kts 75°
2026-04-17 10:50 -38.01205 147.72602 2292 ft 141 kts 73°
2026-04-17 10:50 -38.00921 147.73708 2702 ft 124 kts 72°
2026-04-17 10:50 -38.00602 147.74758 2797 ft 136 kts 69°
2026-04-17 10:50 -38.00193 147.75946 2515 ft 154 kts 66°
2026-04-17 10:51 -37.99746 147.77170 2478 ft 153 kts 66°
2026-04-17 10:51 -37.99305 147.78390 2500 ft 152 kts 66°
2026-04-17 10:51 -37.98863 147.79610 2502 ft 152 kts 66°
2026-04-17 10:51 -37.98421 147.80831 2503 ft 153 kts 66°
2026-04-17 10:52 -37.97979 147.82053 2505 ft 153 kts 66°
2026-04-17 10:52 -37.97546 147.83262 2506 ft 147 kts 67°
2026-04-17 10:52 -37.97205 147.84430 2516 ft 136 kts 70°
2026-04-17 10:52 -37.96869 147.85554 2496 ft 142 kts 70°
2026-04-17 10:53 -37.96513 147.86759 2341 ft 151 kts 71°
2026-04-17 10:53 -37.96178 147.87994 2525 ft 152 kts 72°
2026-04-17 10:53 -37.95825 147.89308 2458 ft 165 kts 72°
2026-04-17 10:53 -37.95454 147.90672 2445 ft 160 kts 72°
2026-04-17 10:54 -37.95096 147.91994 2449 ft 158 kts 72°
2026-04-17 10:54 -37.94740 147.93307 2448 ft 157 kts 72°
2026-04-17 10:54 -37.94387 147.94613 2454 ft 157 kts 72°
2026-04-17 10:54 -37.94033 147.95919 2451 ft 157 kts 72°
2026-04-17 10:55 -37.93680 147.97224 2454 ft 156 kts 72°
2026-04-17 10:55 -37.93327 147.98529 2452 ft 156 kts 72°
2026-04-17 10:55 -37.92974 147.99834 2454 ft 157 kts 72°
2026-04-17 10:55 -37.92625 148.01122 2453 ft 157 kts 72°
2026-04-17 10:56 -37.92271 148.02429 2455 ft 157 kts 72°
2026-04-17 10:56 -37.91919 148.03735 2453 ft 156 kts 72°
2026-04-17 10:56 -37.91566 148.05038 2456 ft 156 kts 72°
2026-04-17 10:56 -37.91214 148.06338 2454 ft 156 kts 72°
2026-04-17 10:57 -37.90861 148.07646 2455 ft 156 kts 72°
2026-04-17 10:57 -37.90555 148.08965 2456 ft 162 kts 76°
2026-04-17 10:57 -37.90257 148.10362 2471 ft 152 kts 75°
2026-04-17 10:57 -37.89962 148.11719 2461 ft 159 kts 75°
2026-04-17 10:58 -37.89681 148.12998 2458 ft 157 kts 75°
2026-04-17 10:58 -37.89377 148.14353 2468 ft 160 kts 74°
2026-04-17 10:58 -37.89059 148.15654 2470 ft 148 kts 73°
2026-04-17 10:58 -37.88762 148.16870 2446 ft 146 kts 73°
2026-04-17 10:59 -37.88457 148.18123 2454 ft 151 kts 73°
2026-04-17 10:59 -37.88143 148.19405 2454 ft 153 kts 73°
2026-04-17 10:59 -37.87826 148.20697 2453 ft 154 kts 73°
2026-04-17 10:59 -37.87507 148.21998 2457 ft 155 kts 73°
2026-04-17 11:00 -37.87191 148.23289 2457 ft 155 kts 73°
2026-04-17 11:00 -37.86871 148.24598 2456 ft 155 kts 73°
2026-04-17 11:00 -37.86551 148.25905 2454 ft 155 kts 73°
2026-04-17 11:00 -37.86231 148.27210 2453 ft 155 kts 73°
2026-04-17 11:01 -37.85911 148.28517 2461 ft 155 kts 73°
2026-04-17 11:01 -37.85591 148.29824 2460 ft 155 kts 73°
2026-04-17 11:01 -37.85271 148.31132 2454 ft 155 kts 73°
2026-04-17 11:01 -37.84951 148.32441 2454 ft 155 kts 73°
2026-04-17 11:02 -37.84632 148.33746 2454 ft 155 kts 73°
2026-04-17 11:02 -37.84314 148.35036 2464 ft 150 kts 73°
2026-04-17 11:02 -37.84004 148.36248 2481 ft 136 kts 72°
2026-04-17 11:02 -37.83705 148.37299 2482 ft 129 kts 71°
2026-04-17 11:03 -37.83402 148.38389 2487 ft 131 kts 71°
2026-04-17 11:03 -37.83110 148.39479 2475 ft 129 kts 73°
2026-04-17 11:03 -37.82964 148.40568 2481 ft 125 kts 84°
2026-04-17 11:03 -37.82857 148.41672 2476 ft 136 kts 83°
2026-04-17 11:04 -37.82752 148.42870 2506 ft 127 kts 84°
2026-04-17 11:04 -37.82653 148.43925 2305 ft 117 kts 85°
2026-04-17 11:04 -37.82580 148.44828 3165 ft 86 kts 87°
2026-04-17 11:04 -37.82507 148.45542 3302 ft 90 kts 85°
2026-04-17 11:05 -37.82416 148.46479 2799 ft 123 kts 84°
2026-04-17 11:05 -37.82286 148.47645 2396 ft 137 kts 82°
2026-04-17 11:05 -37.82114 148.48868 2371 ft 148 kts 80°
2026-04-17 11:05 -37.81953 148.50224 2224 ft 160 kts 84°
2026-04-17 11:06 -37.81858 148.51489 2453 ft 130 kts 85°
2026-04-17 11:06 -37.81791 148.52641 2403 ft 135 kts 89°
2026-04-17 11:06 -37.81779 148.53885 2331 ft 146 kts 91°
2026-04-17 11:06 -37.81789 148.55138 2337 ft 136 kts 91°
2026-04-17 11:07 -37.81797 148.56304 2350 ft 137 kts 91°
2026-04-17 11:07 -37.81810 148.57541 2373 ft 142 kts 92°
2026-04-17 11:07 -37.81812 148.58814 2452 ft 147 kts 90°
2026-04-17 11:07 -37.81827 148.60097 2546 ft 145 kts 92°
2026-04-17 11:08 -37.81841 148.61382 2635 ft 149 kts 91°
2026-04-17 11:08 -37.81830 148.62738 2627 ft 157 kts 90°
2026-04-17 11:08 -37.81822 148.64063 2622 ft 149 kts 90°
2026-04-17 11:08 -37.81814 148.65370 2619 ft 145 kts 90°
2026-04-17 11:09 -37.81807 148.66622 2622 ft 144 kts 90°
2026-04-17 11:09 -37.81803 148.67881 2641 ft 144 kts 91°
2026-04-17 11:09 -37.81813 148.69206 2575 ft 158 kts 93°
2026-04-17 11:10 -37.81961 148.72063 2642 ft 161 kts 95°
2026-04-17 11:10 -37.82035 148.73460 2640 ft 157 kts 95°
2026-04-17 11:10 -37.82107 148.74829 2640 ft 155 kts 95°
2026-04-17 11:10 -37.82168 148.76223 2644 ft 165 kts 92°
2026-04-17 11:11 -37.81977 148.77611 2648 ft 159 kts 80°
2026-04-17 11:11 -37.81773 148.79009 2647 ft 162 kts 80°
2026-04-17 11:11 -37.81567 148.80414 2648 ft 162 kts 80°
2026-04-17 11:11 -37.81365 148.81803 2646 ft 163 kts 80°
2026-04-17 11:12 -37.81160 148.83208 2645 ft 163 kts 80°
2026-04-17 11:12 -37.80956 148.84614 2645 ft 162 kts 80°
2026-04-17 11:12 -37.80752 148.86017 2645 ft 163 kts 80°
2026-04-17 11:12 -37.80547 148.87424 2644 ft 162 kts 80°
2026-04-17 11:13 -37.80342 148.88829 2644 ft 162 kts 80°
2026-04-17 11:13 -37.80138 148.90235 2644 ft 162 kts 80°
2026-04-17 11:13 -37.79933 148.91642 2644 ft 162 kts 80°
2026-04-17 11:13 -37.79729 148.93047 2644 ft 162 kts 80°
2026-04-17 11:14 -37.79525 148.94454 2644 ft 162 kts 80°
2026-04-17 11:14 -37.79321 148.95856 2644 ft 162 kts 80°
2026-04-17 11:14 -37.79117 148.97260 2644 ft 162 kts 80°
2026-04-17 11:14 -37.78916 148.98645 2644 ft 162 kts 80°
2026-04-17 11:15 -37.78712 149.00055 2644 ft 162 kts 80°
2026-04-17 11:15 -37.78509 149.01458 2644 ft 162 kts 80°
2026-04-17 11:15 -37.78335 149.02879 2639 ft 163 kts 84°
2026-04-17 11:15 -37.78253 149.04245 2639 ft 155 kts 89°
2026-04-17 11:16 -37.78231 149.05650 2644 ft 164 kts 89°
2026-04-17 11:16 -37.78229 149.07108 2643 ft 168 kts 93°
2026-04-17 11:16 -37.78364 149.08562 2646 ft 158 kts 98°
2026-04-17 11:16 -37.78500 149.09960 2644 ft 162 kts 98°
2026-04-17 11:17 -37.78638 149.11381 2645 ft 162 kts 98°
2026-04-17 11:17 -37.78775 149.12797 2645 ft 162 kts 98°
2026-04-17 11:17 -37.78911 149.14171 2672 ft 147 kts 98°
2026-04-17 11:17 -37.79033 149.15404 2683 ft 138 kts 98°
2026-04-17 11:18 -37.79148 149.16574 2681 ft 134 kts 98°
2026-04-17 11:18 -37.79262 149.17736 2679 ft 132 kts 98°
2026-04-17 11:18 -37.79376 149.18889 2678 ft 131 kts 98°
2026-04-17 11:18 -37.79489 149.20036 2677 ft 131 kts 98°
2026-04-17 11:19 -37.79602 149.21179 2677 ft 131 kts 98°
2026-04-17 11:19 -37.79632 149.22390 2673 ft 146 kts 89°
2026-04-17 11:19 -37.79594 149.23706 2667 ft 149 kts 89°
2026-04-17 11:19 -37.79562 149.25014 2672 ft 149 kts 89°
2026-04-17 11:20 -37.79530 149.26320 2673 ft 149 kts 89°
2026-04-17 11:20 -37.79497 149.27628 2673 ft 149 kts 89°
2026-04-17 11:20 -37.79466 149.28934 2674 ft 149 kts 89°
2026-04-17 11:20 -37.79435 149.30242 2675 ft 149 kts 89°
2026-04-17 11:21 -37.79403 149.31552 2675 ft 148 kts 89°
2026-04-17 11:21 -37.79370 149.32858 2675 ft 149 kts 89°
2026-04-17 11:21 -37.79338 149.34165 2675 ft 148 kts 89°
2026-04-17 11:21 -37.79306 149.35473 2675 ft 148 kts 89°
2026-04-17 11:22 -37.79274 149.36781 2675 ft 149 kts 89°
2026-04-17 11:22 -37.79243 149.38087 2675 ft 149 kts 89°
2026-04-17 11:22 -37.79212 149.39395 2675 ft 148 kts 89°
2026-04-17 11:22 -37.79181 149.40704 2675 ft 149 kts 89°
2026-04-17 11:23 -37.79150 149.42010 2675 ft 148 kts 89°
2026-04-17 11:23 -37.79118 149.43320 2675 ft 149 kts 89°
2026-04-17 11:23 -37.79087 149.44610 2675 ft 148 kts 89°
2026-04-17 11:23 -37.79056 149.45916 2675 ft 149 kts 89°
2026-04-17 11:24 -37.79025 149.47224 2675 ft 148 kts 89°
2026-04-17 11:24 -37.78994 149.48530 2675 ft 149 kts 89°
2026-04-17 11:24 -37.78963 149.49837 2675 ft 149 kts 89°
2026-04-17 11:24 -37.78933 149.51146 2674 ft 149 kts 89°
2026-04-17 11:25 -37.78903 149.52452 2675 ft 148 kts 89°
2026-04-17 11:25 -37.78873 149.53763 2675 ft 149 kts 89°
2026-04-17 11:25 -37.78844 149.55069 2675 ft 149 kts 89°
2026-04-17 11:25 -37.78815 149.56379 2675 ft 148 kts 89°
2026-04-17 11:26 -37.78785 149.57688 2675 ft 149 kts 89°
2026-04-17 11:26 -37.78755 149.58998 2675 ft 148 kts 89°
2026-04-17 11:26 -37.78735 149.59862 2675 ft 149 kts 89°
2026-04-17 11:26 -37.78546 149.61205 2677 ft 163 kts 79°
2026-04-17 11:27 -37.78339 149.62540 2679 ft 145 kts 80°
2026-04-17 11:27 -37.78077 149.64253 2676 ft 148 kts 80°
2026-04-17 11:27 -37.77714 149.65480 2686 ft 149 kts 66°
2026-04-17 11:27 -37.77427 149.66284 2675 ft 149 kts 66°
2026-04-17 11:28 -37.77006 149.67479 2678 ft 148 kts 66°
2026-04-17 11:28 -37.76586 149.68672 2677 ft 149 kts 66°
2026-04-17 11:28 -37.76166 149.69864 2678 ft 146 kts 66°
2026-04-17 11:28 -37.75608 149.70880 2677 ft 153 kts 52°
2026-04-17 11:29 -37.74937 149.71910 2680 ft 147 kts 51°
2026-04-17 11:29 -37.74276 149.72930 2674 ft 149 kts 51°
2026-04-17 11:29 -37.73532 149.73842 2693 ft 150 kts 39°
2026-04-17 11:29 -37.72730 149.74667 2678 ft 148 kts 39°
2026-04-17 11:30 -37.71930 149.75490 2675 ft 148 kts 39°
2026-04-17 11:30 -37.71131 149.76311 2674 ft 148 kts 39°
2026-04-17 11:30 -37.70330 149.77135 2676 ft 148 kts 39°
2026-04-17 11:30 -37.69530 149.77958 2674 ft 148 kts 39°
2026-04-17 11:31 -37.68730 149.78779 2678 ft 148 kts 39°
2026-04-17 11:31 -37.67928 149.79603 2677 ft 148 kts 39°
2026-04-17 11:31 -37.67130 149.80424 2676 ft 148 kts 39°
2026-04-17 11:31 -37.66338 149.81237 2675 ft 148 kts 39°
2026-04-17 11:32 -37.65538 149.82059 2675 ft 148 kts 39°
2026-04-17 11:32 -37.64739 149.82881 2675 ft 148 kts 39°
2026-04-17 11:32 -37.63940 149.83703 2675 ft 149 kts 39°
2026-04-17 11:32 -37.63141 149.84526 2675 ft 148 kts 39°
2026-04-17 11:33 -37.62343 149.85347 2676 ft 148 kts 39°
2026-04-17 11:33 -37.61544 149.86169 2675 ft 148 kts 39°
2026-04-17 11:33 -37.60744 149.86993 2675 ft 148 kts 39°
2026-04-17 11:33 -37.59945 149.87814 2675 ft 148 kts 39°
2026-04-17 11:34 -37.59143 149.88639 2675 ft 149 kts 39°
2026-04-17 11:34 -37.58355 149.89450 2675 ft 148 kts 39°
2026-04-17 11:34 -37.57554 149.90275 2675 ft 148 kts 39°
2026-04-17 11:34 -37.56755 149.91096 2675 ft 148 kts 39°
2026-04-17 11:35 -37.55955 149.91918 2675 ft 148 kts 39°
2026-04-17 11:35 -37.55154 149.92741 2675 ft 148 kts 39°
2026-04-17 11:35 -37.54353 149.93562 2675 ft 149 kts 39°
2026-04-17 11:35 -37.53552 149.94383 2675 ft 148 kts 39°
2026-04-17 11:36 -37.52752 149.95204 2675 ft 148 kts 39°
2026-04-17 11:36 -37.51951 149.96025 2675 ft 148 kts 39°
2026-04-17 11:36 -37.51150 149.96846 2675 ft 148 kts 39°
2026-04-17 11:36 -37.50360 149.97656 2675 ft 148 kts 39°
2026-04-17 11:37 -37.49559 149.98476 2675 ft 149 kts 39°
2026-04-17 11:37 -37.48759 149.99297 2675 ft 148 kts 39°
2026-04-17 11:37 -37.47923 150.00138 2680 ft 147 kts 38°
2026-04-17 11:37 -37.46964 150.00582 2695 ft 144 kts 13°
2026-04-17 11:38 -37.45966 150.00868 2686 ft 146 kts 13°
2026-04-17 11:38 -37.44970 150.01161 2678 ft 147 kts 13°
2026-04-17 11:38 -37.43972 150.01455 2677 ft 147 kts 13°
2026-04-17 11:38 -37.42975 150.01748 2677 ft 147 kts 13°
2026-04-17 11:39 -37.41978 150.02041 2676 ft 147 kts 13°
2026-04-17 11:39 -37.40978 150.02335 2676 ft 147 kts 13°
2026-04-17 11:39 -37.39982 150.02628 2676 ft 147 kts 13°
2026-04-17 11:39 -37.38983 150.02921 2675 ft 147 kts 13°
2026-04-17 11:40 -37.37999 150.03210 2675 ft 147 kts 13°
2026-04-17 11:40 -37.37002 150.03503 2675 ft 148 kts 13°
2026-04-17 11:40 -37.36005 150.03795 2675 ft 148 kts 13°
2026-04-17 11:40 -37.35008 150.04087 2675 ft 147 kts 13°
2026-04-17 11:41 -37.34010 150.04380 2675 ft 147 kts 13°
2026-04-17 11:41 -37.33016 150.04671 2676 ft 144 kts 13°
2026-04-17 11:41 -37.32072 150.04949 2681 ft 135 kts 13°
2026-04-17 11:41 -37.31170 150.05217 2682 ft 131 kts 13°
2026-04-17 11:42 -37.30288 150.05480 2681 ft 130 kts 13°
2026-04-17 11:42 -37.29412 150.05740 2679 ft 129 kts 13°
2026-04-17 11:42 -37.28541 150.05999 2678 ft 129 kts 13°
2026-04-17 11:42 -37.27671 150.06257 2678 ft 128 kts 13°
2026-04-17 11:43 -37.26803 150.06515 2677 ft 128 kts 13°
2026-04-17 11:43 -37.25934 150.06773 2677 ft 128 kts 13°
2026-04-17 11:43 -37.25047 150.07021 2656 ft 141 kts 12°
2026-04-17 11:43 -37.24002 150.06937 2667 ft 156 kts 354°
2026-04-17 11:44 -37.22979 150.06830 2646 ft 157 kts 358°
2026-04-17 11:44 -37.21837 150.06926 2666 ft 168 kts
2026-04-17 11:44 -37.20659 150.06998 2669 ft 171 kts
2026-04-17 11:44 -37.19468 150.07051 2672 ft 172 kts
2026-04-17 11:45 -37.18272 150.07078 2677 ft 172 kts
2026-04-17 11:45 -37.17076 150.07080 2674 ft 172 kts 360°
2026-04-17 11:45 -37.15879 150.07054 2675 ft 172 kts 359°
2026-04-17 11:45 -37.14878 150.07021 2699 ft 128 kts 358°
2026-04-17 11:46 -37.13874 150.06985 2674 ft 146 kts 358°
2026-04-17 11:46 -37.12849 150.06947 2678 ft 147 kts 358°
2026-04-17 11:46 -37.11825 150.06909 2674 ft 147 kts 358°
2026-04-17 11:46 -37.10801 150.06871 2673 ft 147 kts 358°
2026-04-17 11:47 -37.09780 150.06812 2678 ft 147 kts 355°
2026-04-17 11:47 -37.08775 150.06615 2678 ft 148 kts 352°
2026-04-17 11:47 -37.07764 150.06412 2677 ft 147 kts 349°
2026-04-17 11:47 -37.06794 150.06030 2675 ft 147 kts 343°
2026-04-17 11:48 -37.05816 150.05655 2676 ft 146 kts 343°
2026-04-17 11:48 -37.04856 150.05287 2676 ft 146 kts 343°
2026-04-17 11:48 -37.03881 150.04913 2676 ft 146 kts 343°
2026-04-17 11:48 -37.02907 150.04540 2676 ft 146 kts 343°
2026-04-17 11:49 -37.01933 150.04167 2676 ft 147 kts 343°
2026-04-17 11:49 -37.00959 150.03793 2675 ft 146 kts 343°
2026-04-17 11:49 -36.99986 150.03420 2676 ft 146 kts 343°
2026-04-17 11:49 -36.99011 150.03046 2675 ft 147 kts 343°
2026-04-17 11:50 -36.98038 150.02673 2675 ft 146 kts 343°
2026-04-17 11:50 -36.97076 150.02304 2675 ft 146 kts 343°
2026-04-17 11:50 -36.96091 150.01926 2675 ft 146 kts 343°
2026-04-17 11:50 -36.95130 150.01557 2675 ft 147 kts 343°
2026-04-17 11:51 -36.94159 150.01182 2675 ft 145 kts 343°
2026-04-17 11:51 -36.93248 150.00622 2677 ft 146 kts 332°
2026-04-17 11:51 -36.92359 150.00012 2676 ft 146 kts 332°
2026-04-17 11:51 -36.91469 149.99405 2676 ft 145 kts 332°
2026-04-17 11:52 -36.90578 149.98796 2675 ft 146 kts 332°
2026-04-17 11:52 -36.89687 149.98187 2675 ft 146 kts 332°
2026-04-17 11:52 -36.88776 149.97685 2669 ft 145 kts 341°
2026-04-17 11:52 -36.87759 149.97515 2670 ft 149 kts 356°
2026-04-17 11:53 -36.86729 149.97501 2674 ft 148 kts 359°
2026-04-17 11:53 -36.85707 149.97475 2671 ft 147 kts 359°
2026-04-17 11:53 -36.84686 149.97449 2670 ft 147 kts 359°
2026-04-17 11:53 -36.83677 149.97584 2672 ft 152 kts 10°
2026-04-17 11:54 -36.82663 149.97808 2674 ft 147 kts 10°
2026-04-17 11:54 -36.81654 149.98025 2677 ft 147 kts 10°
2026-04-17 11:54 -36.80673 149.98305 2673 ft 150 kts 14°
2026-04-17 11:54 -36.79672 149.98616 2673 ft 148 kts 14°
2026-04-17 11:55 -36.78675 149.98924 2675 ft 147 kts 14°
2026-04-17 11:55 -36.77679 149.99231 2675 ft 147 kts 14°
2026-04-17 11:55 -36.76683 149.99539 2675 ft 148 kts 14°
2026-04-17 11:55 -36.75686 149.99847 2675 ft 148 kts 14°
2026-04-17 11:56 -36.74692 150.00154 2675 ft 148 kts 14°
2026-04-17 11:56 -36.73695 150.00461 2675 ft 148 kts 14°
2026-04-17 11:56 -36.72700 150.00767 2675 ft 148 kts 14°
2026-04-17 11:56 -36.71703 150.01074 2675 ft 147 kts 14°
2026-04-17 11:57 -36.70706 150.01381 2675 ft 147 kts 14°
2026-04-17 11:57 -36.69708 150.01687 2675 ft 147 kts 14°
2026-04-17 11:57 -36.68713 150.01993 2675 ft 147 kts 14°
2026-04-17 11:57 -36.67716 150.02300 2675 ft 148 kts 14°
2026-04-17 11:58 -36.66732 150.02602 2675 ft 148 kts 14°
2026-04-17 11:58 -36.65734 150.02908 2675 ft 148 kts 14°
2026-04-17 11:58 -36.64737 150.03214 2675 ft 147 kts 14°
2026-04-17 11:58 -36.63741 150.03520 2675 ft 147 kts 14°
2026-04-17 11:59 -36.62745 150.03826 2675 ft 148 kts 14°
2026-04-17 11:59 -36.61746 150.04132 2675 ft 148 kts 14°
2026-04-17 11:59 -36.60751 150.04437 2675 ft 147 kts 14°
2026-04-17 11:59 -36.59754 150.04743 2675 ft 147 kts 14°
2026-04-17 12:00 -36.58757 150.05048 2675 ft 147 kts 14°
2026-04-17 12:00 -36.57760 150.05353 2675 ft 148 kts 14°
2026-04-17 12:00 -36.56763 150.05658 2675 ft 147 kts 14°
2026-04-17 12:00 -36.55765 150.05964 2675 ft 147 kts 14°
2026-04-17 12:01 -36.54781 150.06265 2676 ft 148 kts 14°
2026-04-17 12:01 -36.53784 150.06570 2676 ft 147 kts 14°
2026-04-17 12:01 -36.52788 150.06874 2675 ft 147 kts 14°
2026-04-17 12:01 -36.51791 150.07178 2675 ft 148 kts 14°
2026-04-17 12:02 -36.50792 150.07483 2675 ft 147 kts 14°
2026-04-17 12:02 -36.49793 150.07788 2675 ft 147 kts 14°
2026-04-17 12:02 -36.48793 150.08094 2675 ft 148 kts 14°
2026-04-17 12:02 -36.47796 150.08398 2675 ft 147 kts 14°
2026-04-17 12:03 -36.46811 150.08698 2675 ft 147 kts 14°
2026-04-17 12:03 -36.45814 150.09002 2675 ft 148 kts 14°
2026-04-17 12:03 -36.44817 150.09306 2675 ft 147 kts 14°
2026-04-17 12:03 -36.43820 150.09609 2675 ft 148 kts 14°
2026-04-17 12:04 -36.42823 150.09913 2675 ft 147 kts 14°
2026-04-17 12:04 -36.41824 150.10217 2675 ft 148 kts 14°
2026-04-17 12:04 -36.40825 150.10521 2675 ft 147 kts 14°
2026-04-17 12:04 -36.39827 150.10824 2675 ft 148 kts 14°
2026-04-17 12:05 -36.38828 150.11128 2676 ft 148 kts 14°
2026-04-17 12:05 -36.37830 150.11432 2675 ft 147 kts 14°
2026-04-17 12:05 -36.36834 150.11734 2675 ft 148 kts 14°
2026-04-17 12:05 -36.35845 150.12034 2675 ft 147 kts 14°
2026-04-17 12:06 -36.34849 150.12336 2675 ft 148 kts 14°
2026-04-17 12:06 -36.33852 150.12639 2675 ft 147 kts 14°
2026-04-17 12:06 -36.32852 150.12942 2675 ft 148 kts 14°
2026-04-17 12:06 -36.31853 150.13246 2675 ft 148 kts 14°
2026-04-17 12:07 -36.30857 150.13550 2675 ft 148 kts 14°
2026-04-17 12:07 -36.29859 150.13853 2676 ft 147 kts 14°
2026-04-17 12:07 -36.28862 150.14156 2675 ft 147 kts 14°
2026-04-17 12:07 -36.27863 150.14460 2675 ft 147 kts 14°
2026-04-17 12:08 -36.26867 150.14763 2675 ft 148 kts 14°
2026-04-17 12:08 -36.25869 150.15067 2675 ft 148 kts 14°
2026-04-17 12:08 -36.24873 150.15369 2675 ft 147 kts 14°
2026-04-17 12:08 -36.23887 150.15669 2675 ft 147 kts 14°
2026-04-17 12:09 -36.22889 150.15972 2675 ft 148 kts 14°
2026-04-17 12:09 -36.21892 150.16274 2675 ft 148 kts 14°
2026-04-17 12:09 -36.20893 150.16577 2675 ft 147 kts 14°
2026-04-17 12:09 -36.19895 150.16880 2675 ft 148 kts 14°
2026-04-17 12:10 -36.18899 150.17182 2675 ft 148 kts 14°
2026-04-17 12:10 -36.17901 150.17484 2676 ft 147 kts 14°
2026-04-17 12:10 -36.16903 150.17786 2675 ft 148 kts 14°
2026-04-17 12:10 -36.15907 150.18088 2675 ft 148 kts 14°
2026-04-17 12:11 -36.14906 150.18391 2676 ft 147 kts 14°
2026-04-17 12:11 -36.13910 150.18692 2675 ft 148 kts 14°
2026-04-17 12:11 -36.12913 150.18994 2676 ft 148 kts 14°
2026-04-17 12:12 -36.10931 150.19592 2675 ft 148 kts 14°
2026-04-17 12:12 -36.09933 150.19894 2676 ft 148 kts 14°
2026-04-17 12:12 -36.08935 150.20195 2675 ft 147 kts 14°
2026-04-17 12:12 -36.07938 150.20497 2675 ft 148 kts 14°
2026-04-17 12:13 -36.06940 150.20798 2675 ft 148 kts 14°
2026-04-17 12:13 -36.05942 150.21099 2675 ft 147 kts 14°
2026-04-17 12:13 -36.04944 150.21399 2675 ft 148 kts 14°
2026-04-17 12:13 -36.03945 150.21701 2675 ft 148 kts 14°
2026-04-17 12:14 -36.02946 150.22001 2675 ft 147 kts 14°
2026-04-17 12:14 -36.01948 150.22302 2675 ft 148 kts 14°
2026-04-17 12:14 -36.00950 150.22602 2676 ft 147 kts 14°
2026-04-17 12:14 -35.99952 150.22902 2675 ft 148 kts 14°
2026-04-17 12:15 -35.98954 150.23202 2675 ft 148 kts 14°
2026-04-17 12:15 -35.97955 150.23502 2675 ft 148 kts 14°
2026-04-17 12:15 -35.97294 150.23701 2675 ft 148 kts 14°
2026-04-17 12:15 -35.95960 150.24102 2675 ft 147 kts 14°
2026-04-17 12:16 -35.95299 150.24301 2675 ft 147 kts 14°
2026-04-17 12:16 -35.94299 150.24601 2675 ft 148 kts 14°
2026-04-17 12:16 -35.93299 150.24901 2675 ft 147 kts 14°
2026-04-17 12:16 -35.92301 150.25201 2675 ft 148 kts 14°
2026-04-17 12:17 -35.91304 150.25500 2676 ft 147 kts 14°
2026-04-17 12:17 -35.90305 150.25799 2675 ft 148 kts 14°
2026-04-17 12:17 -35.89308 150.26098 2676 ft 147 kts 14°
2026-04-17 12:17 -35.88309 150.26397 2675 ft 148 kts 14°
2026-04-17 12:18 -35.87310 150.26696 2676 ft 147 kts 14°
2026-04-17 12:18 -35.86311 150.26995 2675 ft 148 kts 14°
2026-04-17 12:18 -35.85314 150.27294 2675 ft 148 kts 14°
2026-04-17 12:18 -35.84315 150.27593 2675 ft 147 kts 14°
2026-04-17 12:19 -35.83317 150.27891 2675 ft 148 kts 14°
2026-04-17 12:19 -35.82319 150.28189 2675 ft 148 kts 14°
2026-04-17 12:19 -35.81320 150.28487 2675 ft 147 kts 14°
2026-04-17 12:19 -35.80322 150.28784 2675 ft 148 kts 14°
2026-04-17 12:20 -35.79324 150.29080 2675 ft 147 kts 14°
2026-04-17 12:20 -35.78339 150.29373 2676 ft 148 kts 14°
2026-04-17 12:20 -35.77341 150.29669 2675 ft 148 kts 14°
2026-04-17 12:20 -35.76341 150.29966 2676 ft 148 kts 14°
2026-04-17 12:21 -35.75343 150.30262 2676 ft 148 kts 14°
2026-04-17 12:21 -35.74344 150.30559 2675 ft 148 kts 14°
2026-04-17 12:21 -35.73343 150.30856 2676 ft 147 kts 14°
2026-04-17 12:21 -35.72344 150.31152 2676 ft 148 kts 14°
2026-04-17 12:22 -35.71344 150.31448 2675 ft 148 kts 14°
2026-04-17 12:22 -35.70347 150.31743 2676 ft 147 kts 14°
2026-04-17 12:22 -35.69348 150.32039 2676 ft 148 kts 14°
2026-04-17 12:22 -35.68349 150.32335 2675 ft 148 kts 14°
2026-04-17 12:23 -35.67352 150.32630 2675 ft 147 kts 14°
2026-04-17 12:23 -35.66352 150.32926 2675 ft 148 kts 14°
2026-04-17 12:23 -35.65354 150.33221 2675 ft 148 kts 14°
2026-04-17 12:23 -35.64373 150.33517 2680 ft 145 kts 14°
2026-04-17 12:24 -35.63398 150.33919 2682 ft 146 kts 18°
2026-04-17 12:24 -35.62421 150.34313 2677 ft 148 kts 18°
2026-04-17 12:24 -35.61448 150.34705 2677 ft 147 kts 18°
2026-04-17 12:24 -35.60473 150.35097 2677 ft 148 kts 18°
2026-04-17 12:25 -35.59496 150.35490 2676 ft 148 kts 18°
2026-04-17 12:25 -35.58521 150.35883 2676 ft 147 kts 18°
2026-04-17 12:25 -35.57546 150.36275 2676 ft 147 kts 18°
2026-04-17 12:25 -35.56607 150.36741 2670 ft 144 kts 26°
2026-04-17 12:26 -35.55716 150.37282 2668 ft 149 kts 26°
2026-04-17 12:26 -35.54696 150.37897 2665 ft 172 kts 26°
2026-04-17 12:26 -35.53737 150.38468 2671 ft 147 kts 26°
2026-04-17 12:26 -35.52804 150.39027 2672 ft 148 kts 26°
2026-04-17 12:27 -35.51877 150.39583 2672 ft 149 kts 26°
2026-04-17 12:27 -35.50944 150.40140 2673 ft 149 kts 26°
2026-04-17 12:27 -35.50022 150.40692 2678 ft 149 kts 26°
2026-04-17 12:27 -35.49085 150.41251 2675 ft 150 kts 26°
2026-04-17 12:28 -35.48148 150.41809 2675 ft 150 kts 26°
2026-04-17 12:28 -35.47214 150.42368 2675 ft 150 kts 26°
2026-04-17 12:28 -35.46279 150.42926 2675 ft 150 kts 26°
2026-04-17 12:28 -35.45339 150.43486 2675 ft 150 kts 26°
2026-04-17 12:29 -35.44403 150.44045 2676 ft 150 kts 26°
2026-04-17 12:29 -35.43467 150.44603 2675 ft 150 kts 26°
2026-04-17 12:29 -35.42528 150.45162 2674 ft 150 kts 26°
2026-04-17 12:29 -35.41589 150.45722 2676 ft 150 kts 26°
2026-04-17 12:30 -35.40653 150.46280 2675 ft 150 kts 26°
2026-04-17 12:30 -35.39716 150.46838 2676 ft 150 kts 26°
2026-04-17 12:30 -35.38791 150.47389 2676 ft 149 kts 26°
2026-04-17 12:30 -35.37857 150.47945 2676 ft 149 kts 26°
2026-04-17 12:31 -35.36924 150.48501 2676 ft 149 kts 26°
2026-04-17 12:31 -35.35989 150.49058 2673 ft 150 kts 26°
2026-04-17 12:31 -35.35049 150.49617 2674 ft 150 kts 26°
2026-04-17 12:31 -35.34106 150.50178 2677 ft 151 kts 26°
2026-04-17 12:32 -35.33164 150.50739 2677 ft 150 kts 26°
2026-04-17 12:32 -35.32228 150.51295 2676 ft 149 kts 26°
2026-04-17 12:32 -35.31294 150.51851 2676 ft 149 kts 26°
2026-04-17 12:32 -35.30363 150.52405 2676 ft 149 kts 26°
2026-04-17 12:33 -35.29429 150.52960 2676 ft 150 kts 26°
2026-04-17 12:33 -35.28491 150.53517 2676 ft 149 kts 26°
2026-04-17 12:33 -35.27557 150.54073 2675 ft 149 kts 26°
2026-04-17 12:33 -35.26622 150.54628 2676 ft 149 kts 26°
2026-04-17 12:34 -35.25687 150.55184 2675 ft 149 kts 26°
2026-04-17 12:34 -35.24755 150.55738 2675 ft 149 kts 26°
2026-04-17 12:34 -35.23821 150.56292 2675 ft 149 kts 26°
2026-04-17 12:34 -35.22901 150.56839 2675 ft 149 kts 26°
2026-04-17 12:35 -35.21968 150.57392 2676 ft 149 kts 26°
2026-04-17 12:35 -35.21035 150.57946 2676 ft 149 kts 26°
2026-04-17 12:35 -35.20101 150.58501 2676 ft 149 kts 26°
2026-04-17 12:35 -35.19169 150.59053 2675 ft 149 kts 26°
2026-04-17 12:37 -35.12649 150.62725 2674 ft 148 kts 24°
2026-04-17 12:37 -35.11723 150.63245 2674 ft 145 kts 26°
2026-04-17 12:38 -35.10851 150.63769 2705 ft 133 kts 25°
2026-04-17 12:38 -35.09976 150.64002 2619 ft 129 kts
2026-04-17 12:38 -35.09084 150.63989 2611 ft 127 kts 360°
2026-04-17 12:38 -35.08199 150.63989 2585 ft 127 kts
2026-04-17 12:39 -35.07312 150.64004 2590 ft 127 kts
2026-04-17 12:39 -35.06455 150.63848 2637 ft 121 kts 346°
2026-04-17 12:39 -35.05701 150.63390 2704 ft 124 kts 332°
2026-04-17 12:39 -35.04935 150.62836 2651 ft 131 kts 329°
2026-04-17 12:40 -35.04190 150.62217 2756 ft 131 kts 325°
2026-04-17 12:40 -35.03468 150.61532 2842 ft 130 kts 322°
2026-04-17 12:40 -35.02781 150.60806 2717 ft 129 kts 319°
2026-04-17 12:40 -35.02150 150.60061 2944 ft 123 kts 316°
2026-04-17 12:41 -35.01562 150.59311 2758 ft 123 kts 314°
2026-04-17 12:41 -35.00993 150.58556 2464 ft 117 kts 313°
2026-04-17 12:41 -35.00463 150.57814 2359 ft 117 kts 311°
2026-04-17 12:41 -34.99921 150.57024 1901 ft 124 kts 311°
2026-04-17 12:42 -34.99289 150.56277 1589 ft 125 kts 322°
2026-04-17 12:42 -34.98514 150.55766 1413 ft 124 kts 334°
2026-04-17 12:42 -34.97742 150.55405 1172 ft 116 kts 341°
2026-04-17 12:42 -34.97032 150.55200 1036 ft 95 kts 349°
2026-04-17 12:43 -34.96481 150.55074 904 ft 70 kts 351°
2026-04-17 12:43 -34.96007 150.55000 821 ft 68 kts 354°
2026-04-17 12:43 -34.95536 150.54948 678 ft 67 kts 356°
2026-04-17 12:43 -34.95138 150.54869 528 ft 51 kts 354°
2026-04-17 12:44 -34.94918 150.54765 398 ft 23 kts 353°
2026-04-17 12:44 -34.94781 150.54845 394 ft 13 kts 338°
2026-04-17 12:44 -34.94703 150.54814 386 ft 15 kts 319°
2026-04-17 12:44 -34.94633 150.54756 383 ft 10 kts 304°
2026-04-17 12:45 -34.94598 150.54688 380 ft 6 kts 207°
2026-04-17 12:45 -34.94611 150.54676 367 ft 0 kts 163°